This is the latest recevied weather packets stored in our database for station/object WX4SGA. If no packets are shown the sender has not sent any weather packets the latest 10 day(s).
| Time | Temp. | Humidity | Pressure | Rain* | Wind** | Luminosity | Snow |
|---|---|---|---|---|---|---|---|
| 1788285147 | 31.67° C | 66% | 1018.6 hPa | 0 mm | - | 853 W/m² | - |
| 1788284842 | 31.67° C | 67% | 1019 hPa | 0 mm | - | 901 W/m² | - |
| 1788284538 | 31.67° C | 69% | 1019 hPa | 0 mm | - | 852 W/m² | - |
| 1788284233 | 30.56° C | 70% | 1019 hPa | 0 mm | - | 842 W/m² | - |
| 1788283928 | 30.56° C | 68% | 1019 hPa | 0 mm | - | 840 W/m² | - |
| 1788283624 | 30° C | 71% | 1019.3 hPa | 0 mm | - | 849 W/m² | - |
| 1788283323 | 30° C | 72% | 1019.3 hPa | 0 mm | - | 912 W/m² | - |
| 1788283021 | 30.56° C | 73% | 1019.3 hPa | 0 mm | - | 788 W/m² | - |
| 1788282720 | 31.11° C | 70% | 1019.3 hPa | 0 mm | - | 921 W/m² | - |
| 1788282415 | 30.56° C | 71% | 1019.3 hPa | 0 mm | - | 840 W/m² | - |
| 1788282109 | 30.56° C | 70% | 1019.6 hPa | 0 mm | - | 860 W/m² | - |
| 1788281808 | 30.56° C | 70% | 1019.6 hPa | 0 mm | - | 836 W/m² | - |
| 1788281504 | 30.56° C | 73% | 1019.6 hPa | 0 mm | - | 850 W/m² | - |
| 1788281200 | 30° C | 74% | 1019.6 hPa | 0 mm | - | 859 W/m² | - |
| 1788280895 | 30° C | 74% | 1019.6 hPa | 0 mm | - | 344 W/m² | - |
| 1788280590 | 30° C | 75% | 1019.6 hPa | 0 mm | - | 151 W/m² | - |
| 1788280288 | 29.44° C | 75% | 1019.6 hPa | 0 mm | - | 405 W/m² | - |
| 1788279984 | 29.44° C | 76% | 1019.6 hPa | 0 mm | - | 117 W/m² | - |
| 1788279678 | 29.44° C | 77% | 1019.6 hPa | 0 mm | - | 183 W/m² | - |
| 1788279377 | 29.44° C | 76% | 1019.6 hPa | 0 mm | - | 807 W/m² | - |
| 1788279076 | 29.44° C | 78% | 1019.6 hPa | 0 mm | - | 813 W/m² | - |
| 1788278773 | 30° C | 74% | 1020 hPa | 0 mm | - | 850 W/m² | - |
| 1788278468 | 29.44° C | 77% | 1019.6 hPa | 0 mm | - | 468 W/m² | - |
| 1788278167 | 28.89° C | 80% | 1019.6 hPa | 0 mm | - | 786 W/m² | - |
| 1788277863 | 28.89° C | 79% | 1020 hPa | 0 mm | - | 417 W/m² | - |
* Rain latest hour (hover to see other rain measurements)
** Current wind speed in m/s (hover to see current wind gust speed)